Starlink 30109

operational
NORAD ID: 56298 Int'l Des: 2023-056 Owner: SPXS Country: US Constellation: starlink
LEOCIRCULAR

Über Starlink 30109

Beschreibung wird geladen...

Live-Position

3D-Globus wird geladen...

Nächste Überflüge

Höhenverlauf

Altitude vs Time

uPlot chart will show altitude changes over time

Zweizeiliger Elementsatz

1 56298U 23056N 26035.00029285 -.00000179 00000-0 18245-5 0 9991
2 56298 43.0036 33.4785 0000810 248.1043 111.9714 15.02533772155010
Epoch: 4. Feb. 2026 • Age: 15 hours

Aktueller Status

Höhe 562.5 km
Geschwindigkeit 7.59 km/s
Subsatellitenpunkt 41.62°N, 106.14°E
Startdatum 19. Apr. 2023
Alter 2.7 years
Typ internet

Technische Details

Klassifizierung Payload
Masse 730.00 kg
Trockenmasse 700.00 kg
Gesamtmasse 730.00 kg
Länge 0.30 m
Durchmesser 4.10 m
Spannweite 29.00 m
Form Box + pan
Hersteller SPXS
Bus-Typ Starlink V2M
Phasenstatus In Orbit
Besitzer/Staat SPXS/US

Große Konstellationen

Loading constellations...